Preview of NWS' New Version of Forecast
This preview is not operational and should not be used for support decisions.

Regional Weather Roundup (RWR)

Issued by National Weather Service (NWS)

                            
000
ASUS43 KLSX 211057
RWRMO 

WEATHER SUMMARY FOR MISSOURI
NATIONAL WEATHER SERVICE SPRINGFIELD MO
600 AM CDT SUN JUL 21 2019

NOTE: "FAIR" INDICATES FEW OR NO CLOUDS BELOW 12,000 FEET WITH NO
       SIGNIFICANT WEATHER AND/OR OBSTRUCTIONS TO VISIBILITY.
       CURRENT SKY AND/OR WEATHER CONDITIONS ARE NOT AVAILABLE FOR
       CHILLICOTHE AND FARMINGTON.

MOZ001>031-035>038-043-044-053-054-211200-
...NORTHERN AND WESTERN MISSOURI...
  
CITY           SKY/WX    TMP DP  RH WIND       PRES   REMARKS
KANSAS CTY INT LGT RAIN  70  69  97 NW8       30.04R                  
LEE'S SUMMIT   LGT RAIN  70  67  90 S9        30.00F                  
ST JOSEPH      LGT RAIN  71  69  93 SW14      29.99F FOG              
CHILLICOTHE      N/A     71  70  96 SW12G20   29.88F                  
KIRKSVILLE     PTCLDY    70  68  94 N8        29.93R                  
     
$$
MOZ066>068-077>081-088>096-101>105-211200-
...SOUTHWEST MISSOURI...
  
CITY           SKY/WX    TMP DP  RH WIND       PRES   REMARKS
SPRINGFIELD    CLEAR     76  71  85 NE6       29.98R                  
JOPLIN         CLEAR     75  72  90 SE5       29.97R                  
               
$$
MOZ032>034-039>042-045>050-055>058-069>072-211200-
...CENTRAL MISSOURI...  
  
CITY           SKY/WX    TMP DP  RH WIND       PRES   REMARKS
COLUMBIA       NOT AVBL                                               
ROLLA          CLEAR     70  68  93 SW5       29.95F                  
SEDALIA        LGT RAIN  68  68 100 NW8       29.98R                  
WARRENSBURG    TSTM      68  68 100 SE5       30.00S                  
               
$$
MOZ051-052-059>065-211200-
...EAST CENTRAL MISSOURI...
  
CITY           SKY/WX    TMP DP  RH WIND       PRES   REMARKS
ST LOUIS INTL  MOCLDY    78  71  79 NW8       29.92R                  
                   
$$
MOZ072>076-082>087-097>100-106>115-211200-
...SOUTH CENTRAL AND SOUTHEAST MISSOURI...
  
CITY           SKY/WX    TMP DP  RH WIND       PRES   REMARKS
CAPE GIRARDEAU FAIR      78  75  90 SW5       29.94R                  
POPLAR BLUFF   FAIR      77  77 100 SW6       29.95R FOG              
WEST PLAINS    CLEAR     74  72  93 SW3       30.00R                  
                                       
$$